Showing default

XM-4, 29520

Orbit data source: Space-Track

XM-4, 29520 is a payload satellite owned by XM Radio (US) in GEO that was launched on Mon, 30 Oct 2006 UTC via a ZENIT-3SL launch vehicle from the Sea Launch (SEAL). Payload-class satellites include a variety of spacecraft equipped with specific instruments for various scientific and technological missions. These include communications satellites like Starlink; space stations such as the ISS; scientific satellites like the Hubble; Earth observation satellites from companies like Planet Labs, Umbra, and HawkEye 360; GPS; miniature CubeSats for education and research; and military/defense satellites.

Not visible in the next 10 days
Identifier
29520, 2006-049A
Orbit
GEO
Country
Flag of USUS
Related business
Manufacturer
Boeing/ES
Mission
Non-operational Commercial Communications
Bus & Motor
BSS-702HP, R-4D-11-300
Mass
5,193 kg wet, ~2,700 kg dry
Launch date (UTC)
2006-10-30 (19 years ago)
Launch vehicle
ZENIT-3SL
Launch site
Sea Launch (SEAL)
Object type
Payload
Rocket body
Debris
Shape & HBR
Box + 2 Pan, 20.2 m
Radar Cross Section
61.334 m², Large (>1 m²)

Expand to show TLE details & history
Last TLE update: 10 hours ago

TLE from 10 hours ago
0 XM-4
1 29520U 06049A   25298.91479624  .00000075  00000-0  00000-0 0  9997
2 29520   2.2349  84.0324 0003328 292.4369  45.3380  0.98812409 49021
Epoch: 2025-10-25T21:57Z
TLE epoch observation values (Epoch: 2025-10-25T21:57:18.395Z)
Latitude
-0.84048°
Longitude
57.94785°
Altitude
36,190.313 km
Speed
3.06 km/s
True Right ascension
04h 07m 15s
True Declination
0° 50' 23"
Sunlit
Object was in daylight at epoch
Visualization orbit readout
Latitude
Unknown
Longitude
Unknown
Altitude
Unknown
Speed
Unknown
Apparent Right ascension
Unknown
Apparent Declination
Unknown
Sunlit
N/A
Visualization observer readout
Local Sidereal Time
02:48:33
Azimuth
Unknown
Elevation
Unknown
Doppler factor
Unknown
Orbital elements
Apogee altitude
36,215.967 km
Perigee altitude
36,187.626 km
Semi-major axis
42,579.933 km
Eccentricity
0.00033
Inclination
2.2349°
RAAN
84.0324°
Arg. of periapsis
292.4369°
True anomaly
45.36513°
Mean anomaly
45.338°
Eccentric anomaly
45.35157°
Mean motion
0.24702 °/min
Orbital period
1,457.36 mins
BSTAR
0
Loading maneuver chart data...
Computing Atmospheric mass density...
Loading historical data...
Loading historical data...
Loading historical data...
Loading historical data...
Loading historical data...
Loading historical data...
Loading historical data...
Other satellites on launch #49 in the year 2006 (2006-10-30 UTC)

Documentation

Showing up to 5 results
|